Hauptseite
METAR-TAF:

METAR-TAF

Flughäfen :

Militärflugplatz Luxeuil-Saint Sauveur

Luxeuil-les-Bains, Frankreich

Breite: 47-47N, Länge: 006-21E, Höhe: 278 m

Beobachtung

Neuester Wetterbericht von vor 32 Minuten, um 06:30 UTC
Wind 2 kt aus unterschiedlichen Richtungen
Temperatur 19°C
Luftfeuchtigkeit 73%
Luftdruck 1018 hPa
Sichtweite 10 km oder mehr

METAR: LFSX 180630Z AUTO VRB02KT 9999 NCD 19/14 Q1018 NOSIG

Zeit: 09:02 (07:02 UTC)

Prognose

Neuester Wetterbericht von vor 2 Stunden und 2 Minuten, um 05:00 UTC
Gültige Prognose vom 18 um 06 UTC bis 19 um 03 UTC
Wind 3 kt aus unterschiedlichen Richtungen
Sichtweite 10 km oder mehr
keine Wolken unter 1500 m und keine Kumulonimbus oder Gewitterwolken

TAF: LFSX 180500Z 1806/1903 VRB03KT CAVOK

Wetterbeobachtungen und Prognosen von mehr als 4000 Flughäfen (METAR und TAF Bericht).

Die verfügbaren Stationen werden durch gelbe und rote Markierungen auf der Karte dargestellt.

Führen Sie die Maus auf sie, um den Namen der Station zu sehen.

Darauf klicken, um die Beobachtung von Wetterbeobachtungen und Prognosen zu sehen.

Um die Karte zu ändern : klicken Sie auf den grünen Tasten mit einem schwarzen Kreuz Zum Vergrößern, auf den grünen Button mit einem Gedankenstrich zu verkleinern, oder auf die grünen Pfeile für benachbarte Karten.


METAR-TAF: